Time,TemperatureF,DewpointF,PressureIn,WindDirection,WindDirectionDegrees,WindSpeedMPH,WindSpeedGustMPH,Humidity,HourlyPrecipIn,Conditions,Clouds,dailyrainin,SolarRadiationWatts/m^2,SoftwareType,DateUTC
2013-01-22 00:00:00,14.5,0.9,29.85,WNW,292,10.5,10.5,54,0.00,BKN,,0.00,0.0,WeatherDisplay:10.37,2013-01-22 05:00:00,
2013-01-22 00:01:00,14.5,0.9,29.85,West,270,10.4,10.4,54,0.00,BKN,,0.00,0.0,WeatherDisplay:10.37,2013-01-22 05:01:00,
2013-01-22 00:04:00,14.5,0.9,29.85,West,270,10.5,10.5,54,0.00,BKN,,0.00,0.0,WeatherDisplay:10.37,2013-01-22 05:04:00,
2013-01-22 00:09:00,14.5,0.9,29.85,West,270,13.2,13.2,54,0.00,BKN,,0.00,0.0,WeatherDisplay:10.37,2013-01-22 05:09:00,
2013-01-22 00:14:00,14.5,0.9,29.83,WSW,248,11.5,11.5,54,0.00,BKN,,0.00,0.0,WeatherDisplay:10.37,2013-01-22 05:14:00,
2013-01-22 00:19:00,14.4,0.7,29.83,West,270,15.0,15.0,54,0.00,BKN,,0.00,0.0,WeatherDisplay:10.37,2013-01-22 05:19:00,
2013-01-22 00:24:00,14.4,0.7,29.83,West,270,12.7,12.7,54,0.00,BKN,,0.00,0.0,WeatherDisplay:10.37,2013-01-22 05:24:00,
2013-01-22 00:29:00,14.2,0.6,29.83,West,270,13.8,13.8,54,0.00,BKN,,0.00,0.0,WeatherDisplay:10.37,2013-01-22 05:29:00,
2013-01-22 00:34:00,13.8,0.2,29.83,WSW,248,15.0,15.0,54,0.00,BKN,,0.00,0.0,WeatherDisplay:10.37,2013-01-22 05:34:00,
2013-01-22 00:39:00,13.8,0.2,29.83,WSW,248,14.0,14.0,54,0.00,BKN,,0.00,0.0,WeatherDisplay:10.37,2013-01-22 05:39:00,
2013-01-22 00:44:00,13.5,-0.1,29.83,WSW,248,16.1,16.1,54,0.00,BKN,,0.00,0.0,WeatherDisplay:10.37,2013-01-22 05:44:00,
2013-01-22 00:49:00,13.5,-0.1,29.83,West,270,15.0,15.0,54,0.00,BKN,,0.00,0.0,WeatherDisplay:10.37,2013-01-22 05:49:00,
2013-01-22 00:54:00,13.3,-0.3,29.83,WSW,248,14.7,14.7,54,0.00,BKN,,0.00,0.0,WeatherDisplay:10.37,2013-01-22 05:54:00,
2013-01-22 00:59:00,13.3,-0.3,29.83,WSW,248,15.0,15.0,54,0.00,BKN,,0.00,0.0,WeatherDisplay:10.37,2013-01-22 05:59:00,
2013-01-22 01:04:00,13.1,-0.5,29.83,WSW,248,15.0,15.0,54,0.00,FEW,,0.00,0.0,WeatherDisplay:10.37,2013-01-22 06:04:00,
2013-01-22 01:09:00,12.9,-0.6,29.83,WSW,248,13.2,13.2,54,0.00,FEW,,0.00,0.0,WeatherDisplay:10.37,2013-01-22 06:09:00,
2013-01-22 01:14:00,12.9,-0.6,29.83,WSW,248,10.4,10.4,54,0.00,FEW,,0.00,0.0,WeatherDisplay:10.37,2013-01-22 06:14:00,
2013-01-22 01:19:00,12.9,-0.6,29.83,West,270,15.0,15.0,54,0.00,FEW,,0.00,0.0,WeatherDisplay:10.37,2013-01-22 06:19:00,
2013-01-22 01:24:00,12.7,-0.8,29.83,WSW,248,15.0,15.0,54,0.00,FEW,,0.00,0.0,WeatherDisplay:10.37,2013-01-22 06:24:00,
2013-01-22 01:29:00,12.7,-0.8,29.83,WSW,248,12.7,12.7,54,0.00,FEW,,0.00,0.0,WeatherDisplay:10.37,2013-01-22 06:29:00,
2013-01-22 01:34:00,12.6,-1.0,29.83,WSW,248,13.8,13.8,54,0.00,FEW,,0.00,0.0,WeatherDisplay:10.37,2013-01-22 06:34:00,
2013-01-22 01:39:00,12.6,-1.0,29.83,WSW,248,12.7,12.7,54,0.00,FEW,,0.00,0.0,WeatherDisplay:10.37,2013-01-22 06:39:00,
2013-01-22 01:44:00,12.6,-1.0,29.83,WSW,248,16.1,16.1,54,0.00,FEW,,0.00,0.0,WeatherDisplay:10.37,2013-01-22 06:44:00,
2013-01-22 01:49:00,12.6,-1.0,29.83,WSW,248,16.1,16.1,54,0.00,FEW,,0.00,0.0,WeatherDisplay:10.37,2013-01-22 06:49:00,
2013-01-22 01:54:00,12.2,-1.3,29.83,West,270,10.4,10.4,54,0.00,FEW,,0.00,0.0,WeatherDisplay:10.37,2013-01-22 06:54:00,
2013-01-22 01:59:00,12.2,-1.3,29.85,West,270,12.7,12.7,54,0.00,FEW,,0.00,0.0,WeatherDisplay:10.37,2013-01-22 06:59:00,
2013-01-22 02:04:00,12.2,-1.3,29.85,WNW,292,12.7,12.7,54,0.00,SCT,,0.00,0.0,WeatherDisplay:10.37,2013-01-22 07:04:00,
2013-01-22 02:09:00,12.2,-1.3,29.85,West,270,8.1,8.1,54,0.00,SCT,,0.00,0.0,WeatherDisplay:10.37,2013-01-22 07:09:00,
2013-01-22 02:14:00,12.0,-1.5,29.83,WSW,248,10.7,10.7,54,0.00,SCT,,0.00,0.0,WeatherDisplay:10.37,2013-01-22 07:14:00,
2013-01-22 02:19:00,12.0,-1.5,29.83,WSW,248,15.0,15.0,54,0.00,SCT,,0.00,0.0,WeatherDisplay:10.37,2013-01-22 07:19:00,
2013-01-22 02:24:00,11.8,-1.6,29.83,West,270,15.9,15.9,54,0.00,SCT,,0.00,0.0,WeatherDisplay:10.37,2013-01-22 07:24:00,
2013-01-22 02:29:00,11.8,-1.6,29.83,WSW,248,13.8,13.8,54,0.00,SCT,,0.00,0.0,WeatherDisplay:10.37,2013-01-22 07:29:00,
2013-01-22 02:34:00,11.8,-1.6,29.83,West,270,13.8,13.8,54,0.00,SCT,,0.00,0.0,WeatherDisplay:10.37,2013-01-22 07:34:00,
2013-01-22 02:39:00,11.7,-1.8,29.83,WSW,248,16.1,16.1,54,0.00,SCT,,0.00,0.0,WeatherDisplay:10.37,2013-01-22 07:39:00,
2013-01-22 02:44:00,11.7,-1.8,29.83,WSW,248,16.1,16.1,54,0.00,SCT,,0.00,0.0,WeatherDisplay:10.37,2013-01-22 07:44:00,
2013-01-22 02:49:00,11.5,-2.0,29.83,West,270,24.2,24.2,54,0.00,SCT,,0.00,0.0,WeatherDisplay:10.37,2013-01-22 07:49:00,
2013-01-22 02:54:00,11.5,-2.0,29.83,WSW,248,18.4,18.4,54,0.00,SCT,,0.00,0.0,WeatherDisplay:10.37,2013-01-22 07:54:00,
2013-01-22 02:59:00,11.5,-2.0,29.83,WSW,248,20.7,20.7,54,0.00,SCT,,0.00,0.0,WeatherDisplay:10.37,2013-01-22 07:59:00,
2013-01-22 03:04:00,11.3,-2.1,29.83,West,270,15.0,15.0,54,0.00,SCT,,0.00,0.0,WeatherDisplay:10.37,2013-01-22 08:04:00,
2013-01-22 03:09:00,11.3,-2.1,29.83,WSW,248,18.4,18.4,54,0.00,SCT,,0.00,0.0,WeatherDisplay:10.37,2013-01-22 08:09:00,
2013-01-22 03:14:00,11.3,-2.1,29.85,West,270,17.3,17.3,54,0.00,SCT,,0.00,0.0,WeatherDisplay:10.37,2013-01-22 08:14:00,
2013-01-22 03:19:00,11.1,-2.3,29.85,West,270,15.0,15.0,54,0.00,SCT,,0.00,0.0,WeatherDisplay:10.37,2013-01-22 08:19:00,
2013-01-22 03:24:00,11.1,-2.3,29.85,West,270,19.6,19.6,54,0.00,SCT,,0.00,0.0,WeatherDisplay:10.37,2013-01-22 08:24:00,
2013-01-22 03:29:00,10.9,-2.5,29.85,West,270,23.0,23.0,54,0.00,SCT,,0.00,0.0,WeatherDisplay:10.37,2013-01-22 08:29:00,
2013-01-22 03:34:00,10.9,-2.5,29.85,WSW,248,16.1,16.1,54,0.00,SCT,,0.00,0.0,WeatherDisplay:10.37,2013-01-22 08:34:00,
2013-01-22 03:39:00,10.9,-2.5,29.85,West,270,18.1,18.1,54,0.00,SCT,,0.00,0.0,WeatherDisplay:10.37,2013-01-22 08:39:00,
2013-01-22 03:44:00,10.9,-2.5,29.85,West,270,18.4,18.4,54,0.00,SCT,,0.00,0.0,WeatherDisplay:10.37,2013-01-22 08:44:00,
2013-01-22 03:49:00,10.9,-2.5,29.85,WSW,248,16.1,16.1,54,0.00,SCT,,0.00,0.0,WeatherDisplay:10.37,2013-01-22 08:49:00,
2013-01-22 03:54:00,10.8,-2.6,29.85,West,270,21.9,21.9,54,0.00,SCT,,0.00,0.0,WeatherDisplay:10.37,2013-01-22 08:54:00,
2013-01-22 03:59:00,10.8,-2.6,29.85,West,270,16.1,16.1,54,0.00,SCT,,0.00,0.0,WeatherDisplay:10.37,2013-01-22 08:59:00,
2013-01-22 04:04:00,10.6,-2.8,29.85,WSW,248,21.9,21.9,54,0.00,SCT,,0.00,0.0,WeatherDisplay:10.37,2013-01-22 09:04:00,
2013-01-22 04:09:00,10.6,-2.8,29.85,WSW,248,18.4,18.4,54,0.00,SCT,,0.00,0.0,WeatherDisplay:10.37,2013-01-22 09:09:00,
2013-01-22 04:14:00,10.4,-3.0,29.85,West,270,18.7,18.7,54,0.00,SCT,,0.00,0.0,WeatherDisplay:10.37,2013-01-22 09:14:00,
2013-01-22 04:19:00,10.4,-3.0,29.85,West,270,19.9,19.9,54,0.00,SCT,,0.00,0.0,WeatherDisplay:10.37,2013-01-22 09:19:00,
2013-01-22 04:24:00,10.4,-3.0,29.85,West,270,13.8,13.8,54,0.00,SCT,,0.00,0.0,WeatherDisplay:10.37,2013-01-22 09:24:00,
2013-01-22 04:29:00,10.2,-3.2,29.85,WSW,248,12.8,12.8,54,0.00,SCT,,0.00,0.0,WeatherDisplay:10.37,2013-01-22 09:29:00,
2013-01-22 04:34:00,10.2,-3.2,29.85,West,270,23.0,23.0,54,0.00,SCT,,0.00,0.0,WeatherDisplay:10.37,2013-01-22 09:34:00,
2013-01-22 04:39:00,10.2,-3.2,29.85,West,270,16.1,16.1,54,0.00,SCT,,0.00,0.0,WeatherDisplay:10.37,2013-01-22 09:39:00,
2013-01-22 04:44:00,10.2,-3.2,29.85,WSW,248,17.6,17.6,54,0.00,SCT,,0.00,0.0,WeatherDisplay:10.37,2013-01-22 09:44:00,
2013-01-22 04:49:00,10.2,-3.2,29.85,WSW,248,13.0,13.0,54,0.00,SCT,,0.00,0.0,WeatherDisplay:10.37,2013-01-22 09:49:00,
2013-01-22 04:54:00,10.2,-3.2,29.85,West,270,19.6,19.6,54,0.00,SCT,,0.00,0.0,WeatherDisplay:10.37,2013-01-22 09:54:00,
2013-01-22 04:59:00,10.2,-3.2,29.88,West,270,16.1,16.1,54,0.00,SCT,,0.00,0.0,WeatherDisplay:10.37,2013-01-22 09:59:00,
2013-01-22 05:04:00,10.2,-3.2,29.88,WSW,248,13.8,13.8,54,0.00,BKN,,0.00,0.0,WeatherDisplay:10.37,2013-01-22 10:04:00,
2013-01-22 05:09:00,10.2,-3.2,29.88,WSW,248,12.7,12.7,54,0.00,BKN,,0.00,0.0,WeatherDisplay:10.37,2013-01-22 10:09:00,
2013-01-22 05:14:00,10.0,-3.3,29.88,West,270,21.9,21.9,54,0.00,BKN,,0.00,0.0,WeatherDisplay:10.37,2013-01-22 10:14:00,
2013-01-22 05:19:00,10.0,-3.3,29.88,WSW,248,16.1,16.1,54,0.00,BKN,,0.00,0.0,WeatherDisplay:10.37,2013-01-22 10:19:00,
2013-01-22 05:24:00,9.9,-3.5,29.88,WSW,248,15.6,15.6,54,0.00,BKN,,0.00,0.0,WeatherDisplay:10.37,2013-01-22 10:24:00,
2013-01-22 05:29:00,9.7,-3.7,29.88,WSW,248,19.6,19.6,54,0.00,BKN,,0.00,0.0,WeatherDisplay:10.37,2013-01-22 10:29:00,
2013-01-22 05:34:00,9.7,-3.7,29.88,WSW,248,15.4,15.4,54,0.00,BKN,,0.00,0.0,WeatherDisplay:10.37,2013-01-22 10:34:00,
2013-01-22 05:40:00,9.7,-3.7,29.88,West,270,24.2,24.2,54,0.00,BKN,,0.00,0.0,WeatherDisplay:10.37,2013-01-22 10:40:00,
2013-01-22 05:45:00,9.7,-3.7,29.88,West,270,21.9,22.3,54,0.00,BKN,,0.00,0.0,WeatherDisplay:10.37,2013-01-22 10:45:00,
2013-01-22 05:50:00,9.7,-3.7,29.88,West,270,25.3,25.3,54,0.00,BKN,,0.00,0.0,WeatherDisplay:10.37,2013-01-22 10:50:00,
2013-01-22 05:55:00,9.5,-3.8,29.88,WSW,258,14.0,24.0,54,0.00,BKN,,0.00,0.0,WeatherDisplay:10.37,2013-01-22 10:55:00,
2013-01-22 06:00:00,9.5,-3.8,29.88,West,259,16.0,23.0,54,0.00,BKN,,0.00,0.0,WeatherDisplay:10.37,2013-01-22 11:00:00,
2013-01-22 06:05:00,9.3,-4.0,29.88,WSW,256,13.0,23.0,54,0.00,OVC,,0.00,0.0,WeatherDisplay:10.37,2013-01-22 11:05:00,
2013-01-22 06:10:00,9.3,-4.0,29.88,West,260,16.0,25.0,54,0.00,OVC,,0.00,0.0,WeatherDisplay:10.37,2013-01-22 11:10:00,
2013-01-22 06:15:00,9.1,-4.2,29.88,West,265,10.0,15.0,54,0.00,OVC,,0.00,0.0,WeatherDisplay:10.37,2013-01-22 11:15:00,
2013-01-22 06:20:00,9.1,-4.2,29.88,West,264,10.0,17.0,54,0.00,OVC,,0.00,0.0,WeatherDisplay:10.37,2013-01-22 11:20:00,
2013-01-22 06:25:00,9.1,-4.2,29.88,West,270,19.6,19.6,54,0.00,OVC,,0.00,0.0,WeatherDisplay:10.37,2013-01-22 11:25:00,
2013-01-22 06:30:00,9.1,-4.2,29.88,WSW,248,18.4,18.4,54,0.00,OVC,,0.00,0.0,WeatherDisplay:10.37,2013-01-22 11:30:00,
2013-01-22 06:35:00,9.0,-4.3,29.88,West,270,20.7,20.7,54,0.00,OVC,,0.00,0.0,WeatherDisplay:10.37,2013-01-22 11:35:00,
2013-01-22 06:40:00,9.0,-4.3,29.88,WSW,248,26.5,26.5,54,0.00,OVC,,0.00,0.0,WeatherDisplay:10.37,2013-01-22 11:40:00,
2013-01-22 06:45:00,8.8,-4.5,29.88,WSW,248,16.1,16.3,54,0.00,OVC,,0.00,0.0,WeatherDisplay:10.37,2013-01-22 11:45:00,
2013-01-22 06:50:00,8.8,-4.5,29.88,WSW,248,21.9,21.9,54,0.00,OVC,,0.00,0.0,WeatherDisplay:10.37,2013-01-22 11:50:00,
2013-01-22 06:55:00,8.8,-4.5,29.88,WSW,248,17.3,17.3,54,0.00,OVC,,0.00,0.0,WeatherDisplay:10.37,2013-01-22 11:55:00,
2013-01-22 07:00:00,8.8,-4.5,29.88,WSW,248,20.7,20.7,54,0.00,OVC,,0.00,0.0,WeatherDisplay:10.37,2013-01-22 12:00:00,
2013-01-22 07:05:00,8.8,-4.5,29.88,SW,225,15.0,15.0,54,0.00,SCT,,0.00,0.0,WeatherDisplay:10.37,2013-01-22 12:05:00,
2013-01-22 07:10:00,8.6,-4.7,29.88,WNW,292,15.0,15.0,54,0.00,SCT,,0.00,0.0,WeatherDisplay:10.37,2013-01-22 12:10:00,
2013-01-22 07:15:00,8.8,-4.5,29.88,West,270,25.3,25.3,54,0.00,SCT,,0.00,0.0,WeatherDisplay:10.37,2013-01-22 12:15:00,
2013-01-22 07:20:00,8.8,-4.5,29.88,SW,225,12.7,12.7,54,0.00,SCT,,0.00,0.0,WeatherDisplay:10.37,2013-01-22 12:20:00,
2013-01-22 07:25:00,8.8,-4.5,29.88,WSW,248,23.0,23.0,54,0.00,SCT,,0.00,0.0,WeatherDisplay:10.37,2013-01-22 12:25:00,
2013-01-22 07:30:00,8.8,-4.5,29.91,WNW,292,15.0,15.0,54,0.00,SCT,,0.00,0.0,WeatherDisplay:10.37,2013-01-22 12:30:00,
2013-01-22 07:35:00,8.8,-4.5,29.91,WSW,248,19.6,19.6,54,0.00,SCT,,0.00,0.0,WeatherDisplay:10.37,2013-01-22 12:35:00,
2013-01-22 07:40:00,8.8,-4.5,29.91,WNW,292,18.4,18.4,54,0.00,SCT,,0.00,0.0,WeatherDisplay:10.37,2013-01-22 12:40:00,
2013-01-22 07:45:00,9.0,-4.3,29.91,SW,225,15.0,15.0,54,0.00,SCT,,0.00,0.0,WeatherDisplay:10.37,2013-01-22 12:45:00,
2013-01-22 07:50:00,9.1,-4.2,29.91,WSW,248,23.0,23.0,54,0.00,SCT,,0.00,0.0,WeatherDisplay:10.37,2013-01-22 12:50:00,
2013-01-22 07:55:00,9.1,-4.2,29.91,WNW,292,24.2,24.2,54,0.00,SCT,,0.00,0.0,WeatherDisplay:10.37,2013-01-22 12:55:00,
2013-01-22 08:00:00,9.3,-4.0,29.91,WNW,292,23.0,23.0,54,0.00,SCT,,0.00,0.0,WeatherDisplay:10.37,2013-01-22 13:00:00,
2013-01-22 08:05:00,9.5,-3.8,29.91,WSW,248,16.1,16.1,54,0.00,SCT,,0.00,0.0,WeatherDisplay:10.37,2013-01-22 13:05:00,
2013-01-22 08:10:00,9.7,-3.7,29.91,WSW,248,23.0,23.0,54,0.00,SCT,,0.00,0.0,WeatherDisplay:10.37,2013-01-22 13:10:00,
2013-01-22 08:15:00,9.7,-3.7,29.91,West,270,21.3,21.3,54,0.00,SCT,,0.00,0.0,WeatherDisplay:10.37,2013-01-22 13:15:00,
2013-01-22 08:20:00,9.7,-3.7,29.91,West,270,27.6,27.6,54,0.00,SCT,,0.00,0.0,WeatherDisplay:10.37,2013-01-22 13:20:00,
2013-01-22 08:25:00,9.9,-3.5,29.91,West,270,25.3,25.3,54,0.00,SCT,,0.00,0.0,WeatherDisplay:10.37,2013-01-22 13:25:00,
2013-01-22 08:30:00,10.0,-3.3,29.91,West,270,27.6,27.6,54,0.00,SCT,,0.00,0.0,WeatherDisplay:10.37,2013-01-22 13:30:00,
2013-01-22 08:35:00,10.2,-3.2,29.91,WSW,248,25.1,25.1,54,0.00,SCT,,0.00,0.0,WeatherDisplay:10.37,2013-01-22 13:35:00,
2013-01-22 08:40:00,10.2,-3.2,29.91,WSW,248,23.0,23.0,54,0.00,SCT,,0.00,0.0,WeatherDisplay:10.37,2013-01-22 13:40:00,
2013-01-22 08:45:00,10.2,-3.2,29.94,WSW,248,24.2,24.2,54,0.00,SCT,,0.00,0.0,WeatherDisplay:10.37,2013-01-22 13:45:00,
2013-01-22 08:50:00,10.6,-2.8,29.94,WNW,292,24.2,24.2,54,0.00,SCT,,0.00,0.0,WeatherDisplay:10.37,2013-01-22 13:50:00,
2013-01-22 08:55:00,10.4,-3.0,29.94,West,270,26.5,26.5,54,0.00,SCT,,0.00,0.0,WeatherDisplay:10.37,2013-01-22 13:55:00,
2013-01-22 09:00:00,10.8,-2.6,29.94,WSW,248,25.3,25.3,54,0.00,SCT,,0.00,0.0,WeatherDisplay:10.37,2013-01-22 14:00:00,
2013-01-22 09:05:00,11.1,-2.3,29.94,WSW,248,17.3,17.3,54,0.00,BKN,,0.00,0.0,WeatherDisplay:10.37,2013-01-22 14:05:00,
2013-01-22 09:10:00,11.1,-2.3,29.94,WSW,248,24.2,24.2,54,0.00,BKN,,0.00,0.0,WeatherDisplay:10.37,2013-01-22 14:10:00,
2013-01-22 09:15:00,10.9,-2.5,29.94,West,270,28.8,28.8,54,0.00,BKN,,0.00,0.0,WeatherDisplay:10.37,2013-01-22 14:15:00,
2013-01-22 09:20:00,10.9,-2.5,29.94,WSW,248,26.5,26.5,54,0.00,BKN,,0.00,0.0,WeatherDisplay:10.37,2013-01-22 14:20:00,
2013-01-22 09:25:00,11.3,-2.1,29.94,West,270,27.5,27.5,54,0.00,BKN,,0.00,0.0,WeatherDisplay:10.37,2013-01-22 14:25:00,
2013-01-22 09:30:00,11.3,-2.1,29.94,WSW,248,33.4,33.4,54,0.00,BKN,,0.00,0.0,WeatherDisplay:10.37,2013-01-22 14:30:00,
2013-01-22 09:35:00,12.0,-1.5,29.94,West,270,27.6,27.6,54,0.00,BKN,,0.00,0.0,WeatherDisplay:10.37,2013-01-22 14:35:00,
2013-01-22 09:40:00,12.2,-1.3,29.94,WSW,248,26.5,26.5,54,0.00,BKN,,0.00,0.0,WeatherDisplay:10.37,2013-01-22 14:40:00,
2013-01-22 09:45:00,12.0,-1.5,29.94,WNW,292,30.4,30.4,54,0.00,BKN,,0.00,0.0,WeatherDisplay:10.37,2013-01-22 14:45:00,
2013-01-22 09:50:00,11.7,-1.8,29.94,West,270,27.6,27.6,54,0.00,BKN,,0.00,0.0,WeatherDisplay:10.37,2013-01-22 14:50:00,
2013-01-22 09:55:00,12.2,-1.3,29.94,WSW,248,27.6,27.6,54,0.00,BKN,,0.00,0.0,WeatherDisplay:10.37,2013-01-22 14:55:00,
2013-01-22 10:00:00,12.6,-1.0,29.94,West,270,20.7,20.7,54,0.00,BKN,,0.00,0.0,WeatherDisplay:10.37,2013-01-22 15:00:00,
2013-01-22 10:05:00,12.7,-0.8,29.94,West,270,23.9,23.9,54,0.00,BKN,,0.00,0.0,WeatherDisplay:10.37,2013-01-22 15:05:00,
2013-01-22 10:10:00,12.9,-0.6,29.94,West,270,18.4,18.4,54,0.00,BKN,,0.00,0.0,WeatherDisplay:10.37,2013-01-22 15:10:00,
2013-01-22 10:15:00,12.9,-0.6,29.94,West,270,26.5,26.5,54,0.00,BKN,,0.00,0.0,WeatherDisplay:10.37,2013-01-22 15:15:00,
2013-01-22 10:20:00,12.9,-0.6,29.94,West,270,29.9,29.9,54,0.00,BKN,,0.00,0.0,WeatherDisplay:10.37,2013-01-22 15:20:00,
2013-01-22 10:25:00,12.9,-0.6,29.94,SW,225,28.8,28.8,54,0.00,BKN,,0.00,0.0,WeatherDisplay:10.37,2013-01-22 15:25:00,
2013-01-22 10:30:00,13.1,-0.5,29.97,WNW,292,25.3,25.3,54,0.00,BKN,,0.00,0.0,WeatherDisplay:10.37,2013-01-22 15:30:00,
2013-01-22 10:35:00,13.3,-0.3,29.97,WNW,292,23.9,23.9,54,0.00,BKN,,0.00,0.0,WeatherDisplay:10.37,2013-01-22 15:35:00,
2013-01-22 10:40:00,12.9,-0.6,29.97,WSW,248,27.6,27.6,54,0.00,BKN,,0.00,0.0,WeatherDisplay:10.37,2013-01-22 15:40:00,
2013-01-22 10:45:00,12.9,-0.6,29.97,WSW,248,31.1,31.1,54,0.00,BKN,,0.00,0.0,WeatherDisplay:10.37,2013-01-22 15:45:00,
2013-01-22 10:50:00,12.7,-0.8,29.97,WSW,248,21.9,21.9,54,0.00,BKN,,0.00,0.0,WeatherDisplay:10.37,2013-01-22 15:50:00,
2013-01-22 10:55:00,12.7,-0.8,29.97,WSW,248,29.9,29.9,54,0.00,BKN,,0.00,0.0,WeatherDisplay:10.37,2013-01-22 15:55:00,
2013-01-22 11:00:00,12.9,-0.6,29.97,West,270,25.3,25.3,54,0.00,BKN,,0.00,0.0,WeatherDisplay:10.37,2013-01-22 16:00:00,
2013-01-22 11:05:00,12.9,-0.6,29.97,WSW,248,26.5,26.5,54,0.00,BKN,,0.00,0.0,WeatherDisplay:10.37,2013-01-22 16:05:00,
2013-01-22 11:10:00,12.6,-1.0,29.97,West,270,27.5,27.5,54,0.00,BKN,,0.00,0.0,WeatherDisplay:10.37,2013-01-22 16:10:00,
2013-01-22 11:15:00,12.7,-0.8,29.97,WSW,248,23.0,23.0,54,0.00,BKN,,0.00,0.0,WeatherDisplay:10.37,2013-01-22 16:15:00,
2013-01-22 11:20:00,13.3,-0.3,29.97,West,270,25.6,25.6,54,0.00,BKN,,0.00,0.0,WeatherDisplay:10.37,2013-01-22 16:20:00,
2013-01-22 11:25:00,13.3,-0.3,29.97,WNW,292,29.9,29.9,54,0.00,BKN,,0.00,0.0,WeatherDisplay:10.37,2013-01-22 16:25:00,
2013-01-22 11:30:00,13.1,-0.5,29.97,WNW,292,25.5,25.5,54,0.00,BKN,,0.00,0.0,WeatherDisplay:10.37,2013-01-22 16:30:00,
2013-01-22 11:36:00,12.4,-1.1,29.97,WNW,292,23.0,23.0,54,0.00,BKN,,0.00,0.0,WeatherDisplay:10.37,2013-01-22 16:36:00,
2013-01-22 11:41:00,12.0,-1.5,29.97,WNW,292,29.9,29.9,54,0.00,BKN,,0.00,0.0,WeatherDisplay:10.37,2013-01-22 16:41:00,
2013-01-22 11:46:00,12.9,-0.6,29.97,WNW,292,23.5,23.5,54,0.00,BKN,,0.00,0.0,WeatherDisplay:10.37,2013-01-22 16:46:00,
2013-01-22 11:51:00,13.3,-0.3,29.97,WNW,292,22.5,22.5,54,0.00,BKN,,0.00,0.0,WeatherDisplay:10.37,2013-01-22 16:51:00,
2013-01-22 11:56:00,12.2,-1.3,29.97,West,270,25.3,25.3,54,0.00,BKN,,0.00,0.0,WeatherDisplay:10.37,2013-01-22 16:56:00,
2013-01-22 12:01:00,12.4,-1.1,29.97,WSW,248,23.5,23.5,54,0.00,BKN,,0.00,0.0,WeatherDisplay:10.37,2013-01-22 17:01:00,
2013-01-22 12:06:00,12.6,-1.0,29.97,WNW,292,24.2,24.2,54,0.00,OVC,,0.00,0.0,WeatherDisplay:10.37,2013-01-22 17:06:00,
2013-01-22 12:11:00,12.2,-1.3,29.97,West,270,27.6,27.6,54,0.00,OVC,,0.00,0.0,WeatherDisplay:10.37,2013-01-22 17:11:00,
2013-01-22 12:16:00,12.6,-1.0,29.97,West,270,20.7,20.7,54,0.00,OVC,,0.00,0.0,WeatherDisplay:10.37,2013-01-22 17:16:00,
2013-01-22 12:21:00,12.9,-0.6,29.97,WNW,292,25.3,25.3,54,0.00,OVC,,0.00,0.0,WeatherDisplay:10.37,2013-01-22 17:21:00,
2013-01-22 12:26:00,12.7,-0.8,29.97,WNW,292,25.3,25.3,54,0.00,OVC,,0.00,0.0,WeatherDisplay:10.37,2013-01-22 17:26:00,
2013-01-22 12:31:00,13.5,-0.1,29.97,West,270,28.6,28.6,54,0.00,OVC,,0.00,0.0,WeatherDisplay:10.37,2013-01-22 17:31:00,
2013-01-22 12:36:00,14.4,0.7,29.97,West,270,25.3,25.3,54,0.00,OVC,,0.00,0.0,WeatherDisplay:10.37,2013-01-22 17:36:00,
2013-01-22 12:41:00,13.8,0.2,29.97,WNW,292,26.5,26.5,54,0.00,OVC,,0.00,0.0,WeatherDisplay:10.37,2013-01-22 17:41:00,
2013-01-22 12:46:00,13.8,0.2,29.97,WNW,292,24.2,24.2,54,0.00,OVC,,0.00,0.0,WeatherDisplay:10.37,2013-01-22 17:46:00,
2013-01-22 12:51:00,14.2,0.6,29.97,WNW,292,21.9,21.9,54,0.00,OVC,,0.00,0.0,WeatherDisplay:10.37,2013-01-22 17:51:00,
2013-01-22 12:56:00,13.8,0.2,29.97,West,270,25.3,25.3,54,0.00,OVC,,0.00,0.0,WeatherDisplay:10.37,2013-01-22 17:56:00,
2013-01-22 13:01:00,14.2,0.6,29.97,West,270,23.0,23.0,54,0.00,BKN,,0.00,0.0,WeatherDisplay:10.37,2013-01-22 18:01:00,
2013-01-22 13:07:00,14.2,0.6,29.97,WSW,248,28.4,28.4,54,0.00,BKN,,0.00,0.0,WeatherDisplay:10.37,2013-01-22 18:07:00,
2013-01-22 13:12:00,14.4,0.7,29.97,WSW,248,25.9,25.9,54,0.00,BKN,,0.00,0.0,WeatherDisplay:10.37,2013-01-22 18:12:00,
2013-01-22 13:17:00,14.4,0.7,29.97,West,270,25.3,25.3,54,0.00,BKN,,0.00,0.0,WeatherDisplay:10.37,2013-01-22 18:17:00,
2013-01-22 13:22:00,13.8,0.2,29.97,WSW,248,27.5,27.5,54,0.00,BKN,,0.00,0.0,WeatherDisplay:10.37,2013-01-22 18:22:00,
2013-01-22 13:27:00,14.5,0.9,29.94,NW,315,27.6,27.6,54,0.00,BKN,,0.00,0.0,WeatherDisplay:10.37,2013-01-22 18:27:00,
2013-01-22 13:32:00,15.3,1.6,29.94,WNW,292,23.5,23.5,54,0.00,BKN,,0.00,0.0,WeatherDisplay:10.37,2013-01-22 18:32:00,
2013-01-22 13:37:00,14.4,0.7,29.94,WNW,292,21.9,21.9,54,0.00,BKN,,0.00,0.0,WeatherDisplay:10.37,2013-01-22 18:37:00,
2013-01-22 13:42:00,14.9,1.2,29.94,West,270,25.1,25.1,54,0.00,BKN,,0.00,0.0,WeatherDisplay:10.37,2013-01-22 18:42:00,
2013-01-22 13:47:00,15.1,1.4,29.94,WNW,292,19.6,19.6,54,0.00,BKN,,0.00,0.0,WeatherDisplay:10.37,2013-01-22 18:47:00,
2013-01-22 13:52:00,13.6,0.0,29.94,West,270,25.3,25.3,54,0.00,BKN,,0.00,0.0,WeatherDisplay:10.37,2013-01-22 18:52:00,
2013-01-22 13:57:00,14.2,0.6,29.97,West,270,25.3,25.3,54,0.00,BKN,,0.00,0.0,WeatherDisplay:10.37,2013-01-22 18:57:00,
2013-01-22 14:02:00,14.4,0.7,29.97,West,270,27.6,27.6,54,0.00,BKN,,0.00,0.0,WeatherDisplay:10.37,2013-01-22 19:02:00,
2013-01-22 14:07:00,13.6,0.0,29.97,WNW,292,25.3,25.3,54,0.00,BKN,,0.00,0.0,WeatherDisplay:10.37,2013-01-22 19:07:00,
2013-01-22 14:12:00,13.5,-0.1,29.97,WNW,292,26.5,26.5,54,0.00,BKN,,0.00,0.0,WeatherDisplay:10.37,2013-01-22 19:12:00,
2013-01-22 14:17:00,13.6,0.0,29.97,WNW,292,17.6,17.6,54,0.00,BKN,,0.00,0.0,WeatherDisplay:10.37,2013-01-22 19:17:00,
2013-01-22 14:22:00,12.7,-0.8,29.97,West,270,23.0,23.0,54,0.00,BKN,,0.00,0.0,WeatherDisplay:10.37,2013-01-22 19:22:00,
2013-01-22 14:27:00,12.6,-1.0,29.97,WNW,292,19.4,19.4,54,0.00,BKN,,0.00,0.0,WeatherDisplay:10.37,2013-01-22 19:27:00,
2013-01-22 14:32:00,12.7,-0.8,29.97,WNW,292,23.0,23.0,54,0.00,BKN,,0.00,0.0,WeatherDisplay:10.37,2013-01-22 19:32:00,
2013-01-22 14:38:00,12.9,-0.6,29.97,WSW,248,19.6,19.6,54,0.00,BKN,,0.00,0.0,WeatherDisplay:10.37,2013-01-22 19:38:00,
2013-01-22 14:43:00,14.0,0.4,29.97,WSW,248,25.3,25.3,54,0.00,BKN,,0.00,0.0,WeatherDisplay:10.37,2013-01-22 19:43:00,
2013-01-22 14:48:00,14.2,0.6,29.97,WNW,292,20.7,20.7,54,0.00,BKN,,0.00,0.0,WeatherDisplay:10.37,2013-01-22 19:48:00,
2013-01-22 14:53:00,14.2,0.6,29.97,WSW,248,20.7,20.7,54,0.00,BKN,,0.00,0.0,WeatherDisplay:10.37,2013-01-22 19:53:00,
2013-01-22 14:58:00,13.6,0.0,29.97,West,270,24.2,24.2,54,0.00,BKN,,0.00,0.0,WeatherDisplay:10.37,2013-01-22 19:58:00,
2013-01-22 15:03:00,14.4,0.7,29.97,WSW,248,17.3,17.3,54,0.00,BKN,,0.00,0.0,WeatherDisplay:10.37,2013-01-22 20:03:00,
2013-01-22 15:08:00,13.6,0.0,29.97,WNW,292,25.3,25.3,54,0.00,BKN,,0.00,0.0,WeatherDisplay:10.37,2013-01-22 20:08:00,
2013-01-22 15:13:00,14.2,0.6,30.00,WNW,292,18.4,18.4,54,0.00,BKN,,0.00,0.0,WeatherDisplay:10.37,2013-01-22 20:13:00,
2013-01-22 15:18:00,14.4,0.7,30.00,WSW,248,19.6,19.6,54,0.00,BKN,,0.00,0.0,WeatherDisplay:10.37,2013-01-22 20:18:00,
2013-01-22 15:23:00,13.8,0.2,30.00,West,270,20.7,20.7,54,0.00,BKN,,0.00,0.0,WeatherDisplay:10.37,2013-01-22 20:23:00,
2013-01-22 15:28:00,13.6,0.0,30.00,WSW,248,20.7,20.7,54,0.00,BKN,,0.00,0.0,WeatherDisplay:10.37,2013-01-22 20:28:00,
2013-01-22 15:33:00,13.6,0.0,30.00,West,270,28.8,28.8,54,0.00,BKN,,0.00,0.0,WeatherDisplay:10.37,2013-01-22 20:33:00,
2013-01-22 15:38:00,13.6,0.0,30.00,WNW,292,20.7,20.7,54,0.00,BKN,,0.00,0.0,WeatherDisplay:10.37,2013-01-22 20:38:00,
2013-01-22 15:43:00,14.0,0.4,30.00,WNW,292,20.1,20.1,54,0.00,BKN,,0.00,0.0,WeatherDisplay:10.37,2013-01-22 20:43:00,
2013-01-22 15:48:00,14.4,0.7,30.00,WSW,248,17.3,17.3,54,0.00,BKN,,0.00,0.0,WeatherDisplay:10.37,2013-01-22 20:48:00,
2013-01-22 15:53:00,12.9,-0.6,30.00,WSW,248,18.4,18.4,54,0.00,BKN,,0.00,0.0,WeatherDisplay:10.37,2013-01-22 20:53:00,
2013-01-22 15:58:00,12.9,-0.6,30.00,WSW,248,19.6,19.6,54,0.00,BKN,,0.00,0.0,WeatherDisplay:10.37,2013-01-22 20:58:00,
2013-01-22 16:03:00,12.6,-1.0,30.00,West,270,23.0,23.0,54,0.00,OVC,,0.00,0.0,WeatherDisplay:10.37,2013-01-22 21:03:00,
2013-01-22 16:08:00,12.6,-1.0,30.00,WNW,292,19.6,19.6,54,0.00,OVC,,0.00,0.0,WeatherDisplay:10.37,2013-01-22 21:08:00,
2013-01-22 16:13:00,12.6,-1.0,30.00,WNW,292,12.7,12.7,54,0.00,OVC,,0.00,0.0,WeatherDisplay:10.37,2013-01-22 21:13:00,
2013-01-22 16:18:00,12.2,-1.3,30.00,WSW,248,17.3,17.3,54,0.00,OVC,,0.00,0.0,WeatherDisplay:10.37,2013-01-22 21:18:00,
2013-01-22 16:23:00,12.2,-1.3,30.00,West,270,17.3,17.3,54,0.00,OVC,,0.00,0.0,WeatherDisplay:10.37,2013-01-22 21:23:00,
2013-01-22 16:28:00,12.0,-1.5,29.97,WSW,248,17.3,17.3,54,0.00,OVC,,0.00,0.0,WeatherDisplay:10.37,2013-01-22 21:28:00,
2013-01-22 16:32:00,12.0,-1.5,29.97,West,270,18.4,18.4,54,0.00,OVC,,0.00,0.0,WeatherDisplay:10.37,2013-01-22 21:32:00,
2013-01-22 16:37:00,11.8,-1.6,29.97,WNW,292,19.6,19.6,54,0.00,OVC,,0.00,0.0,WeatherDisplay:10.37,2013-01-22 21:37:00,
2013-01-22 16:42:00,11.8,-1.6,30.00,WSW,248,19.9,19.9,54,0.00,OVC,,0.00,0.0,WeatherDisplay:10.37,2013-01-22 21:42:00,
2013-01-22 16:47:00,11.8,-1.6,30.00,West,270,17.3,17.3,54,0.00,OVC,,0.00,0.0,WeatherDisplay:10.37,2013-01-22 21:47:00,
2013-01-22 16:52:00,12.2,-1.3,30.00,WNW,292,16.1,16.1,54,0.00,OVC,,0.00,0.0,WeatherDisplay:10.37,2013-01-22 21:52:00,
2013-01-22 16:57:00,12.0,-1.5,30.00,West,270,17.3,17.3,54,0.00,OVC,,0.00,0.0,WeatherDisplay:10.37,2013-01-22 21:57:00,
2013-01-22 17:02:00,11.8,-1.6,30.00,WNW,292,10.9,10.9,54,0.00,OVC,,0.00,0.0,WeatherDisplay:10.37,2013-01-22 22:02:00,
2013-01-22 17:07:00,11.8,-1.6,30.00,West,270,10.0,10.0,54,0.00,OVC,,0.00,0.0,WeatherDisplay:10.37,2013-01-22 22:07:00,
2013-01-22 17:12:00,11.7,-1.8,30.00,WNW,292,18.4,18.4,54,0.00,OVC,,0.00,0.0,WeatherDisplay:10.37,2013-01-22 22:12:00,
2013-01-22 17:17:00,11.7,-1.8,30.00,West,270,23.0,23.0,54,0.00,OVC,,0.00,0.0,WeatherDisplay:10.37,2013-01-22 22:17:00,
2013-01-22 17:22:00,11.7,-1.8,30.00,WSW,248,17.3,17.3,54,0.00,OVC,,0.00,0.0,WeatherDisplay:10.37,2013-01-22 22:22:00,
2013-01-22 17:27:00,11.3,-2.1,30.03,West,270,20.7,20.7,54,0.00,OVC,,0.00,0.0,WeatherDisplay:10.37,2013-01-22 22:27:00,
2013-01-22 17:32:00,11.5,-2.0,30.03,West,270,23.5,23.5,54,0.00,OVC,,0.00,0.0,WeatherDisplay:10.37,2013-01-22 22:32:00,
2013-01-22 17:37:00,11.3,-2.1,30.03,WSW,248,24.2,24.2,54,0.00,OVC,,0.00,0.0,WeatherDisplay:10.37,2013-01-22 22:37:00,
2013-01-22 17:43:00,11.3,-2.1,30.03,WSW,248,25.3,25.3,54,0.00,OVC,,0.00,0.0,WeatherDisplay:10.37,2013-01-22 22:43:00,
2013-01-22 17:48:00,11.3,-2.1,30.03,West,270,20.7,20.7,54,0.00,OVC,,0.00,0.0,WeatherDisplay:10.37,2013-01-22 22:48:00,
2013-01-22 17:53:00,11.3,-2.1,30.03,WNW,292,12.7,12.7,54,0.00,OVC,,0.00,0.0,WeatherDisplay:10.37,2013-01-22 22:53:00,
2013-01-22 17:58:00,11.1,-2.3,30.03,SSW,202,14.7,14.7,54,0.00,OVC,,0.00,0.0,WeatherDisplay:10.37,2013-01-22 22:58:00,
2013-01-22 18:03:00,11.1,-2.3,30.03,WSW,248,13.8,13.8,54,0.00,BKN,,0.00,0.0,WeatherDisplay:10.37,2013-01-22 23:03:00,
2013-01-22 18:08:00,11.1,-2.3,30.03,WNW,292,17.3,17.3,54,0.00,BKN,,0.00,0.0,WeatherDisplay:10.37,2013-01-22 23:08:00,
2013-01-22 18:13:00,11.1,-2.3,30.06,WSW,248,17.3,17.3,54,0.00,BKN,,0.00,0.0,WeatherDisplay:10.37,2013-01-22 23:13:00,
2013-01-22 18:18:00,11.1,-2.3,30.06,WSW,248,21.9,21.9,54,0.00,BKN,,0.00,0.0,WeatherDisplay:10.37,2013-01-22 23:18:00,
2013-01-22 18:23:00,11.1,-2.3,30.06,West,270,17.3,17.3,54,0.00,BKN,,0.00,0.0,WeatherDisplay:10.37,2013-01-22 23:23:00,
2013-01-22 18:28:00,11.1,-2.3,30.06,West,270,16.1,16.1,54,0.00,BKN,,0.00,0.0,WeatherDisplay:10.37,2013-01-22 23:28:00,
2013-01-22 18:33:00,11.1,-2.3,30.06,WSW,248,19.6,19.6,54,0.00,BKN,,0.00,0.0,WeatherDisplay:10.37,2013-01-22 23:33:00,
2013-01-22 18:38:00,11.1,-2.3,30.06,WSW,248,16.1,16.1,54,0.00,BKN,,0.00,0.0,WeatherDisplay:10.37,2013-01-22 23:38:00,
2013-01-22 18:43:00,11.1,-2.3,30.06,West,270,17.6,17.6,54,0.00,BKN,,0.00,0.0,WeatherDisplay:10.37,2013-01-22 23:43:00,
2013-01-22 18:48:00,11.1,-2.3,30.06,West,270,15.0,15.0,54,0.00,BKN,,0.00,0.0,WeatherDisplay:10.37,2013-01-22 23:48:00,
2013-01-22 18:53:00,11.1,-2.3,30.06,West,270,17.3,17.3,54,0.00,BKN,,0.00,0.0,WeatherDisplay:10.37,2013-01-22 23:53:00,
2013-01-22 18:58:00,10.9,-2.5,30.06,West,270,20.7,20.7,54,0.00,BKN,,0.00,0.0,WeatherDisplay:10.37,2013-01-22 23:58:00,
2013-01-22 19:03:00,10.9,-2.5,30.06,WSW,248,23.7,23.7,54,0.00,BKN,,0.00,0.0,WeatherDisplay:10.37,2013-01-23 00:03:00,
2013-01-22 19:08:00,10.9,-2.5,30.06,WSW,248,25.3,25.3,54,0.00,BKN,,0.00,0.0,WeatherDisplay:10.37,2013-01-23 00:08:00,
2013-01-22 19:13:00,10.8,-2.6,30.06,WNW,292,26.5,26.5,54,0.00,BKN,,0.00,0.0,WeatherDisplay:10.37,2013-01-23 00:13:00,
2013-01-22 19:18:00,10.6,-2.8,30.06,WNW,292,19.6,19.6,54,0.00,BKN,,0.00,0.0,WeatherDisplay:10.37,2013-01-23 00:18:00,
2013-01-22 19:23:00,10.4,-3.0,30.06,West,270,23.0,23.0,54,0.00,BKN,,0.00,0.0,WeatherDisplay:10.37,2013-01-23 00:23:00,
2013-01-22 19:28:00,10.4,-3.0,30.06,WSW,248,21.9,21.9,54,0.00,BKN,,0.00,0.0,WeatherDisplay:10.37,2013-01-23 00:28:00,
2013-01-22 19:33:00,10.2,-3.2,30.06,West,270,21.9,21.9,54,0.00,BKN,,0.00,0.0,WeatherDisplay:10.37,2013-01-23 00:33:00,
2013-01-22 19:38:00,10.2,-3.2,30.06,WSW,248,19.9,19.9,54,0.00,BKN,,0.00,0.0,WeatherDisplay:10.37,2013-01-23 00:38:00,
2013-01-22 19:43:00,10.2,-3.2,30.06,West,270,17.6,17.6,54,0.00,BKN,,0.00,0.0,WeatherDisplay:10.37,2013-01-23 00:43:00,
2013-01-22 19:48:00,10.0,-3.3,30.06,WNW,292,23.7,23.7,54,0.00,BKN,,0.00,0.0,WeatherDisplay:10.37,2013-01-23 00:48:00,
2013-01-22 19:53:00,9.7,-3.7,30.06,West,270,18.4,18.4,54,0.00,BKN,,0.00,0.0,WeatherDisplay:10.37,2013-01-23 00:53:00,
2013-01-22 19:58:00,9.5,-3.8,30.03,WNW,292,27.6,27.6,54,0.00,BKN,,0.00,0.0,WeatherDisplay:10.37,2013-01-23 00:58:00,
2013-01-22 20:03:00,9.3,-4.0,30.03,WNW,292,23.0,23.0,54,0.00,-SN,,0.00,0.0,WeatherDisplay:10.37,2013-01-23 01:03:00,
2013-01-22 20:08:00,9.3,-4.0,30.03,WNW,292,19.4,19.4,54,0.00,-SN,,0.00,0.0,WeatherDisplay:10.37,2013-01-23 01:08:00,
2013-01-22 20:13:00,9.1,-4.2,30.06,West,270,16.1,16.1,54,0.00,-SN,,0.00,0.0,WeatherDisplay:10.37,2013-01-23 01:13:00,
2013-01-22 20:18:00,9.1,-4.2,30.06,West,270,17.3,17.3,54,0.00,-SN,,0.00,0.0,WeatherDisplay:10.37,2013-01-23 01:18:00,
2013-01-22 20:23:00,9.3,-4.0,30.06,WNW,292,16.1,16.1,54,0.00,-SN,,0.00,0.0,WeatherDisplay:10.37,2013-01-23 01:23:00,
2013-01-22 20:28:00,9.3,-4.0,30.06,WNW,292,13.0,13.0,54,0.00,-SN,,0.00,0.0,WeatherDisplay:10.37,2013-01-23 01:28:00,
2013-01-22 20:33:00,9.3,-4.0,30.06,West,270,15.2,15.2,54,0.00,-SN,,0.00,0.0,WeatherDisplay:10.37,2013-01-23 01:33:00,
2013-01-22 20:38:00,9.3,-4.0,30.06,West,270,16.1,16.1,54,0.00,-SN,,0.00,0.0,WeatherDisplay:10.37,2013-01-23 01:38:00,
2013-01-22 20:43:00,9.1,-4.2,30.06,West,270,21.9,21.9,54,0.00,-SN,,0.00,0.0,WeatherDisplay:10.37,2013-01-23 01:43:00,
2013-01-22 20:48:00,9.0,-4.3,30.06,WSW,248,18.4,18.4,54,0.00,-SN,,0.00,0.0,WeatherDisplay:10.37,2013-01-23 01:48:00,
2013-01-22 20:53:00,8.8,-4.5,30.06,West,270,18.5,18.5,54,0.00,-SN,,0.00,0.0,WeatherDisplay:10.37,2013-01-23 01:53:00,
2013-01-22 20:58:00,8.8,-4.5,30.06,WNW,292,17.3,17.3,54,0.00,-SN,,0.00,0.0,WeatherDisplay:10.37,2013-01-23 01:58:00,
2013-01-22 21:03:00,8.8,-4.5,30.06,West,270,17.3,17.3,54,0.00,OVC,,0.00,0.0,WeatherDisplay:10.37,2013-01-23 02:03:00,
2013-01-22 21:08:00,8.8,-4.5,30.06,West,270,20.7,20.7,54,0.00,OVC,,0.00,0.0,WeatherDisplay:10.37,2013-01-23 02:08:00,
2013-01-22 21:13:00,8.8,-4.5,30.09,West,270,14.7,14.7,54,0.00,OVC,,0.00,0.0,WeatherDisplay:10.37,2013-01-23 02:13:00,
2013-01-22 21:18:00,8.8,-4.5,30.09,WNW,292,15.0,15.0,54,0.00,OVC,,0.00,0.0,WeatherDisplay:10.37,2013-01-23 02:18:00,
2013-01-22 21:23:00,8.8,-4.5,30.09,West,270,17.3,17.3,54,0.00,OVC,,0.00,0.0,WeatherDisplay:10.37,2013-01-23 02:23:00,
2013-01-22 21:28:00,8.8,-4.5,30.06,WNW,292,15.0,15.0,54,0.00,OVC,,0.00,0.0,WeatherDisplay:10.37,2013-01-23 02:28:00,
2013-01-22 21:34:00,8.8,-4.5,30.06,WNW,292,13.8,13.8,54,0.00,OVC,,0.00,0.0,WeatherDisplay:10.37,2013-01-23 02:34:00,
2013-01-22 21:39:00,8.6,-4.7,30.06,West,270,12.7,12.7,54,0.00,OVC,,0.00,0.0,WeatherDisplay:10.37,2013-01-23 02:39:00,
2013-01-22 21:44:00,8.6,-4.7,30.09,West,270,17.3,17.3,54,0.00,OVC,,0.00,0.0,WeatherDisplay:10.37,2013-01-23 02:44:00,
2013-01-22 21:49:00,8.6,-4.7,30.09,WNW,292,15.0,15.0,54,0.00,OVC,,0.00,0.0,WeatherDisplay:10.37,2013-01-23 02:49:00,
2013-01-22 21:54:00,8.4,-4.8,30.09,WNW,292,12.7,12.7,54,0.00,OVC,,0.00,0.0,WeatherDisplay:10.37,2013-01-23 02:54:00,
2013-01-22 21:59:00,8.4,-4.8,30.09,WNW,292,15.2,15.2,54,0.00,OVC,,0.00,0.0,WeatherDisplay:10.37,2013-01-23 02:59:00,
2013-01-22 22:04:00,8.6,-4.7,30.09,WNW,292,16.8,16.8,54,0.00,-SN,,0.00,0.0,WeatherDisplay:10.37,2013-01-23 03:04:00,
2013-01-22 22:09:00,8.6,-4.7,30.09,West,270,11.2,11.2,54,0.00,-SN,,0.00,0.0,WeatherDisplay:10.37,2013-01-23 03:09:00,
2013-01-22 22:14:00,8.4,-4.8,30.09,WSW,248,15.0,15.0,54,0.00,-SN,,0.00,0.0,WeatherDisplay:10.37,2013-01-23 03:14:00,
2013-01-22 22:19:00,8.4,-4.8,30.09,West,270,13.8,13.8,54,0.00,-SN,,0.00,0.0,WeatherDisplay:10.37,2013-01-23 03:19:00,
2013-01-22 22:24:00,8.2,-5.0,30.09,WNW,292,12.7,12.7,54,0.00,-SN,,0.00,0.0,WeatherDisplay:10.37,2013-01-23 03:24:00,
2013-01-22 22:29:00,8.1,-5.2,30.09,WSW,248,16.1,16.1,54,0.00,-SN,,0.00,0.0,WeatherDisplay:10.37,2013-01-23 03:29:00,
2013-01-22 22:34:00,8.1,-5.2,30.09,West,270,15.2,15.2,54,0.00,-SN,,0.00,0.0,WeatherDisplay:10.37,2013-01-23 03:34:00,
2013-01-22 22:39:00,8.1,-5.2,30.09,West,270,15.0,15.0,54,0.00,-SN,,0.00,0.0,WeatherDisplay:10.37,2013-01-23 03:39:00,
2013-01-22 22:44:00,8.1,-5.2,30.09,WSW,248,9.2,9.2,54,0.00,-SN,,0.00,0.0,WeatherDisplay:10.37,2013-01-23 03:44:00,
2013-01-22 22:49:00,8.1,-5.2,30.09,WSW,248,9.2,9.2,54,0.00,-SN,,0.00,0.0,WeatherDisplay:10.37,2013-01-23 03:49:00,
2013-01-22 22:54:00,8.1,-5.2,30.09,West,270,15.0,15.0,54,0.00,-SN,,0.00,0.0,WeatherDisplay:10.37,2013-01-23 03:54:00,
2013-01-22 22:59:00,8.1,-5.2,30.09,West,270,9.2,9.2,54,0.00,-SN,,0.00,0.0,WeatherDisplay:10.37,2013-01-23 03:59:00,
2013-01-22 23:04:00,7.9,-5.3,30.09,WSW,248,11.5,11.5,54,0.00,-SN,,0.00,0.0,WeatherDisplay:10.37,2013-01-23 04:04:00,
2013-01-22 23:09:00,7.9,-5.3,30.09,WSW,248,13.8,13.8,54,0.00,-SN,,0.00,0.0,WeatherDisplay:10.37,2013-01-23 04:09:00,
2013-01-22 23:14:00,7.9,-5.3,30.09,WSW,248,13.8,13.8,54,0.00,-SN,,0.00,0.0,WeatherDisplay:10.37,2013-01-23 04:14:00,
2013-01-22 23:19:00,8.1,-5.2,30.09,WNW,292,11.5,11.5,54,0.00,-SN,,0.00,0.0,WeatherDisplay:10.37,2013-01-23 04:19:00,
2013-01-22 23:24:00,8.1,-5.2,30.09,WSW,248,12.1,12.1,54,0.00,-SN,,0.00,0.0,WeatherDisplay:10.37,2013-01-23 04:24:00,
2013-01-22 23:29:00,7.9,-5.3,30.09,WSW,248,20.7,20.7,54,0.00,-SN,,0.00,0.0,WeatherDisplay:10.37,2013-01-23 04:29:00,
2013-01-22 23:34:00,7.9,-5.3,30.09,West,270,17.6,17.6,54,0.00,-SN,,0.00,0.0,WeatherDisplay:10.37,2013-01-23 04:34:00,
2013-01-22 23:39:00,7.9,-5.3,30.09,WNW,292,11.5,11.5,54,0.00,-SN,,0.00,0.0,WeatherDisplay:10.37,2013-01-23 04:39:00,
2013-01-22 23:44:00,7.7,-5.5,30.09,WNW,292,13.8,13.8,54,0.00,-SN,,0.00,0.0,WeatherDisplay:10.37,2013-01-23 04:44:00,
2013-01-22 23:49:00,7.7,-5.5,30.09,WSW,248,10.9,10.9,54,0.00,-SN,,0.00,0.0,WeatherDisplay:10.37,2013-01-23 04:49:00,
2013-01-22 23:54:00,7.7,-5.5,30.09,WSW,248,11.5,11.5,54,0.00,-SN,,0.00,0.0,WeatherDisplay:10.37,2013-01-23 04:54:00,
2013-01-22 23:59:00,7.7,-5.5,30.09,WSW,248,8.1,8.1,54,0.00,-SN,,0.00,0.0,WeatherDisplay:10.37,2013-01-23 04:59:00,